• In Deutschland
  • Länderverzeichnis
  • Für 7 Tage
  • Wassertemperatur
  • Satellitenkarten
  • Wetterkarte
  • Widgets
  • user-avatar
    Anmelden

    Stündliche Wetter Kempten

    Heute, 20 Juli, Freitag

    Zeit Temperatur Niederschläge Wind Luftdruck Luftfeuchtigkeit
    00:00 +16°C° 0 mm 1 m/S 696 mmHg 88%
    01:00 +15°C° 0 mm 1 m/S 696 mmHg 89%
    02:00 +15°C° 0 mm 1 m/S 696 mmHg 88%
    03:00 +15°C° 0 mm 1 m/S 695 mmHg 88%
    04:00 +15°C° 0 mm 1 m/S 695 mmHg 88%
    05:00 +16°C° 0,1 mm 1 m/S 695 mmHg 84%
    06:00 +19°C° 0,1 mm 1 m/S 695 mmHg 81%
    07:00 +18°C° 0,1 mm 0 m/S 696 mmHg 78%
    08:00 +22°C° 0,3 mm 1 m/S 696 mmHg 73%
    09:00 +23°C° 0,3 mm 1 m/S 696 mmHg 68%
    10:00 +25°C° 0,3 mm 1 m/S 696 mmHg 63%
    11:00 +25°C° 1,1 mm 1 m/S 696 mmHg 64%
    12:00 +25°C° 1,1 mm 1 m/S 696 mmHg 65%
    13:00 +26°C° 1,1 mm 1 m/S 696 mmHg 65%
    14:00 +26°C° 0,6 mm 1 m/S 696 mmHg 63%
    15:00 +26°C° 0,6 mm 1 m/S 696 mmHg 61%
    16:00 +26°C° 0,6 mm 1 m/S 695 mmHg 59%
    17:00 +25°C° 0,7 mm 1 m/S 695 mmHg 67%
    18:00 +23°C° 0,7 mm 1 m/S 695 mmHg 75%
    19:00 +22°C° 0,7 mm 1 m/S 694 mmHg 83%
    20:00 +20°C° 0,1 mm 1 m/S 694 mmHg 84%
    21:00 +19°C° 0,1 mm 1 m/S 694 mmHg 86%
    22:00 +18°C° 0,1 mm 1 m/S 694 mmHg 87%
    23:00 +17°C° 0,1 mm 2 m/S 694 mmHg 87%

    Morgen, 21 Juli, Samstag

    Zeit Temperatur Niederschläge Wind Luftdruck Luftfeuchtigkeit
    00:00 +16°C° 0,1 mm 2 m/S 694 mmHg 86%
    01:00 +16°C° 0,1 mm 2 m/S 694 mmHg 86%
    02:00 +16°C° 0,3 mm 2 m/S 693 mmHg 89%
    03:00 +16°C° 0,3 mm 2 m/S 693 mmHg 91%
    04:00 +16°C° 0,3 mm 2 m/S 693 mmHg 94%
    05:00 +16°C° 0,9 mm 2 m/S 693 mmHg 94%
    06:00 +16°C° 0,9 mm 2 m/S 693 mmHg 94%
    07:00 +17°C° 0,9 mm 2 m/S 693 mmHg 94%
    08:00 +17°C° 0,7 mm 2 m/S 693 mmHg 92%
    09:00 +18°C° 0,7 mm 2 m/S 694 mmHg 91%
    10:00 +18°C° 0,7 mm 2 m/S 694 mmHg 90%
    11:00 +19°C° 0,7 mm 2 m/S 694 mmHg 88%
    12:00 +19°C° 0,7 mm 2 m/S 694 mmHg 86%
    13:00 +20°C° 0,7 mm 2 m/S 694 mmHg 85%
    14:00 +20°C° 0,8 mm 2 m/S 694 mmHg 86%
    15:00 +20°C° 0,8 mm 2 m/S 694 mmHg 87%
    16:00 +19°C° 0,8 mm 2 m/S 694 mmHg 88%
    17:00 +19°C° 0,6 mm 2 m/S 694 mmHg 90%
    18:00 +20°C° 0,6 mm 1 m/S 694 mmHg 91%
    19:00 +19°C° 0,6 mm 1 m/S 694 mmHg 93%
    20:00 +18°C° 0,2 mm 1 m/S 694 mmHg 94%
    21:00 +16°C° 0,2 mm 1 m/S 694 mmHg 94%
    22:00 +15°C° 0,2 mm 1 m/S 694 mmHg 95%
    23:00 +15°C° 0 mm 1 m/S 694 mmHg 95%

    übermorgen, 22 Juli, Sonntag

    Zeit Temperatur Niederschläge Wind Luftdruck Luftfeuchtigkeit
    00:00 +14°C° 0 mm 1 m/S 694 mmHg 95%
    01:00 +14°C° 0 mm 1 m/S 693 mmHg 96%
    02:00 +14°C° 0 mm 1 m/S 693 mmHg 96%
    03:00 +14°C° 0 mm 1 m/S 693 mmHg 96%
    04:00 +13°C° 0 mm 1 m/S 693 mmHg 96%
    05:00 +14°C° 0 mm 1 m/S 693 mmHg 95%
    06:00 +15°C° 0 mm 1 m/S 693 mmHg 95%
    07:00 +16°C° 0 mm 1 m/S 693 mmHg 94%
    08:00 +16°C° 0,3 mm 1 m/S 693 mmHg 93%
    09:00 +18°C° 0,3 mm 1 m/S 693 mmHg 92%
    10:00 +18°C° 0,3 mm 1 m/S 693 mmHg 91%
    11:00 +18°C° 0,4 mm 2 m/S 693 mmHg 87%
    12:00 +19°C° 0,4 mm 2 m/S 693 mmHg 83%
    13:00 +21°C° 0,4 mm 2 m/S 693 mmHg 79%
    14:00 +21°C° 0,9 mm 2 m/S 693 mmHg 81%
    15:00 +21°C° 0,9 mm 2 m/S 693 mmHg 82%
    16:00 +21°C° 0,9 mm 2 m/S 693 mmHg 84%
    17:00 +21°C° 0,9 mm 1 m/S 693 mmHg 87%
    18:00 +20°C° 0,9 mm 1 m/S 693 mmHg 90%
    19:00 +20°C° 0,9 mm 1 m/S 693 mmHg 93%
    20:00 +19°C° 0,4 mm 1 m/S 693 mmHg 93%
    21:00 +18°C° 0,4 mm 1 m/S 693 mmHg 94%
    22:00 +16°C° 0,4 mm 1 m/S 694 mmHg 95%
    23:00 +16°C° 0 mm 1 m/S 694 mmHg 95%

    23 Juli, Montag

    Zeit Temperatur Niederschläge Wind Luftdruck Luftfeuchtigkeit
    00:00 +15°C° 0 mm 1 m/S 693 mmHg 96%
    01:00 +15°C° 0 mm 1 m/S 693 mmHg 96%
    02:00 +15°C° 0,1 mm 1 m/S 693 mmHg 97%
    03:00 +15°C° 0,1 mm 1 m/S 693 mmHg 97%
    04:00 +15°C° 0,1 mm 1 m/S 694 mmHg 97%
    05:00 +15°C° 0,5 mm 1 m/S 694 mmHg 97%
    06:00 +16°C° 0,5 mm 1 m/S 694 mmHg 97%
    07:00 +16°C° 0,5 mm 1 m/S 694 mmHg 97%
    08:00 +18°C° 0,4 mm 1 m/S 695 mmHg 94%
    09:00 +19°C° 0,4 mm 1 m/S 695 mmHg 92%
    10:00 +20°C° 0,4 mm 1 m/S 695 mmHg 90%
    11:00 +21°C° 0,5 mm 1 m/S 695 mmHg 86%
    12:00 +22°C° 0,5 mm 1 m/S 695 mmHg 82%
    13:00 +23°C° 0,5 mm 1 m/S 696 mmHg 78%
    14:00 +23°C° 0,4 mm 2 m/S 695 mmHg 76%
    15:00 +23°C° 0,4 mm 2 m/S 695 mmHg 73%
    16:00 +24°C° 0,4 mm 2 m/S 695 mmHg 71%
    17:00 +23°C° 0,2 mm 1 m/S 695 mmHg 75%
    18:00 +22°C° 0,2 mm 1 m/S 695 mmHg 78%
    19:00 +21°C° 0,2 mm 1 m/S 695 mmHg 82%
    20:00 +20°C° 0 mm 1 m/S 695 mmHg 84%
    21:00 +18°C° 0 mm 1 m/S 695 mmHg 87%
    22:00 +16°C° 0 mm 1 m/S 695 mmHg 89%
    23:00 +15°C° 0 mm 1 m/S 695 mmHg 90%

    24 Juli, Dienstag

    Zeit Temperatur Niederschläge Wind Luftdruck Luftfeuchtigkeit
    00:00 +15°C° 0 mm 1 m/S 695 mmHg 91%
    01:00 +14°C° 0 mm 1 m/S 695 mmHg 91%
    02:00 +14°C° 0 mm 1 m/S 694 mmHg 91%
    03:00 +14°C° 0 mm 1 m/S 694 mmHg 90%
    04:00 +13°C° 0 mm 1 m/S 694 mmHg 90%
    05:00 +15°C° 0 mm 1 m/S 694 mmHg 86%
    06:00 +16°C° 0 mm 1 m/S 694 mmHg 82%
    07:00 +18°C° 0 mm 1 m/S 694 mmHg 78%
    08:00 +20°C° 0 mm 1 m/S 694 mmHg 71%
    09:00 +23°C° 0 mm 1 m/S 694 mmHg 63%
    10:00 +25°C° 0 mm 2 m/S 695 mmHg 55%
    11:00 +26°C° 0 mm 2 m/S 694 mmHg 53%
    12:00 +27°C° 0 mm 2 m/S 694 mmHg 52%
    13:00 +27°C° 0 mm 3 m/S 694 mmHg 50%
    14:00 +27°C° 0 mm 3 m/S 694 mmHg 52%
    15:00 +27°C° 0 mm 3 m/S 694 mmHg 54%
    16:00 +27°C° 0 mm 3 m/S 694 mmHg 56%
    17:00 +26°C° 0 mm 2 m/S 694 mmHg 64%
    18:00 +24°C° 0 mm 2 m/S 693 mmHg 72%
    19:00 +23°C° 0 mm 2 m/S 693 mmHg 80%
    20:00 +21°C° 0 mm 1 m/S 694 mmHg 84%
    21:00 +20°C° 0 mm 1 m/S 694 mmHg 88%
    22:00 +18°C° 0 mm 1 m/S 694 mmHg 92%
    23:00 +18°C° 0 mm 1 m/S 694 mmHg 93%

    25 Juli, Mittwoch

    Zeit Temperatur Niederschläge Wind Luftdruck Luftfeuchtigkeit
    00:00 +18°C° 0 mm 1 m/S 694 mmHg 93%
    01:00 +16°C° 0 mm 1 m/S 694 mmHg 93%
    02:00 +16°C° 0 mm 1 m/S 694 mmHg 94%
    03:00 +16°C° 0 mm 1 m/S 694 mmHg 94%
    04:00 +16°C° 0 mm 1 m/S 694 mmHg 94%
    05:00 +18°C° 0 mm 1 m/S 694 mmHg 92%
    06:00 +19°C° 0 mm 1 m/S 695 mmHg 90%
    07:00 +20°C° 0 mm 1 m/S 695 mmHg 88%
    08:00 +21°C° 0,4 mm 1 m/S 695 mmHg 83%
    09:00 +23°C° 0,4 mm 2 m/S 695 mmHg 79%
    10:00 +24°C° 0,4 mm 2 m/S 696 mmHg 75%
    11:00 +24°C° 0,6 mm 2 m/S 696 mmHg 73%
    12:00 +25°C° 0,6 mm 2 m/S 695 mmHg 71%
    13:00 +25°C° 0,6 mm 2 m/S 695 mmHg 70%
    14:00 +25°C° 0,8 mm 2 m/S 695 mmHg 73%
    15:00 +25°C° 0,8 mm 2 m/S 695 mmHg 76%
    16:00 +24°C° 0,8 mm 2 m/S 696 mmHg 79%
    17:00 +23°C° 0,9 mm 1 m/S 696 mmHg 83%
    18:00 +23°C° 0,9 mm 1 m/S 696 mmHg 86%
    19:00 +20°C° 0,9 mm 0 m/S 696 mmHg 90%
    20:00 +21°C° 0,6 mm 1 m/S 696 mmHg 90%
    21:00 +19°C° 0,6 mm 1 m/S 696 mmHg 91%
    22:00 +18°C° 0,6 mm 1 m/S 696 mmHg 92%
    23:00 +18°C° 0,1 mm 1 m/S 696 mmHg 93%
    Mehr zeigen